Вернуться в каталог

YUNYAO-1 60

АктивенПогодаSSO
NORAD 63296·PAYLOAD·🇨🇳 China
Это название спутника еще не подтверждено официальными источниками.

Запущен Mar 17, 2025 с Jiuquan Satellite Launch Center

Loading…

Ближайшие Пролёты (ближайшие 24 часа)

TLE

СвежийSource: Space-Track

Эпоха: Sep 14, 2026, 14:53 UTC

1 63296U 25055F   26257.62067637  .00007498  00000-0  37343-3 0  9993
2 63296  97.6648  38.3348 0011644 170.7467 189.3983 15.17821188 82569

Отслеживайте YUNYAO-1 60 в реальном времени с AllMySat

Download on the App Store